STARLINK-38242, 100266

Orbit data source: Space-Track

STARLINK-38242, 100266 is a payload satellite owned by SpaceX/Seattle (US) in SSO that was launched on Sat, 08 Aug 2026 UTC launched from the Air Force Western Test Range (AFWTR). Payload-class satellites include a variety of spacecraft equipped with specific instruments for various scientific and technological missions. These include communications satellites like Starlink; space stations such as the ISS; scientific satellites like the Hubble; Earth observation satellites from companies like Planet Labs, Umbra, and HawkEye 360; GPS; miniature CubeSats for education and research; and military/defense satellites.

Not visible in the next 10 days
Identifier
100266, 2026-181W
Orbit
SSO
Country
Flag of USUS
Related business
Manufacturer
SpaceX/Seattle
Mission
Operational spacecraft
Bus & Motor
STARLINK V2MO, Unknown motor
Mass
575 kg wet, ~530 kg dry
Launch date (UTC)
2026-08-08 (1 month ago)
Launch vehicle
Unknown
Launch site
Air Force Western Test Range (AFWTR)
Object type
Payload
Rocket body
Debris
Shape & HBR
BOX + PAN, 17.7 m
Radar Cross Section
RCS unknown

Expand to show TLE details & history
Last TLE update: 5 hours ago

TLE from 5 hours ago
0 STARLINK-38242
1 A0266U 26181W   26249.64685054  .00112879  00000-0  74776-3 0  9995
2 A0266  97.2839 292.6212 0001133 120.1156 240.0222 15.75188485  5775
Epoch: 2026-09-06T15:31Z
TLE epoch observation values (Epoch: 2026-09-06T15:31:27.886Z)
Latitude
Longitude
74.01603°
Altitude
347.644 km
Speed
7.7 km/s
True Right ascension
19h 30m 29s
True Declination
0° 00' 00"
Sunlit
Object was in full shadow at epoch
Visualization orbit readout
Latitude
Unknown
Longitude
Unknown
Altitude
Unknown
Speed
Unknown
Apparent Right ascension
Unknown
Apparent Declination
Unknown
Sunlit
N/A
Visualization observer readout
Local Sidereal Time
13:04:41
Azimuth
Unknown
Elevation
Unknown
Doppler factor
Unknown
Orbital elements
Apogee altitude
341.744 km
Perigee altitude
340.221 km
Semi-major axis
6,719.119 km
Eccentricity
0.00011
Inclination
97.2839°
RAAN
292.6212°
Arg. of periapsis
120.1156°
True anomaly
240.01095°
Mean anomaly
240.0222°
Eccentric anomaly
240.01658°
Mean motion
3.94071 °/min
Orbital period
91.35 mins
BSTAR
0.00074776
Loading maneuver chart data...
Computing Atmospheric mass density...
Loading historical data...
Loading historical data...
Loading historical data...
Loading historical data...
Loading historical data...
Loading historical data...
Loading historical data...

Documentation

Showing up to 5 results
|